User: anonymous
Location: Prairie State College
(41.5244°N, 87.6382°W)
Time: 18:16:21
(UTC-05:00)
Language:

Cosmos 1140 Rocket - Orbit

View from above orbital plane
View from above orbital plane
View from above satellite
View from above satellite

Ground track
Ground track

The orbit data is extracted from the following two-line orbital elements,

1 11574U 79089B   14210.47277711  .00000082  00000-0  34015-4 0  7934
2 11574 074.0719 003.5989 0015783 179.8795 234.6083 14.40238374825436
Epoch (UTC): 29 July 2014 11:20:47
Eccentricity: 0.0015783
inclination: 74.0719°
perigee height: 746 km
apogee height: 769 km
right ascension of ascending node: 3.5989°
argument of perigee: 179.8795°
revolutions per day: 14.40238374
mean anomaly at epoch: 234.6083°
orbit number at epoch: 82543

The dashed part of the orbit path shows where the satellite is in the earth's shadow,  

DLR